Home   Weather   Hefei   Past weeks

Flag for China Past Weather in Hefei, Anhui, China — Yesterday and Last 2 Weeks

Now
46 °F

Haze.


Feels Like: 44 °F
Forecast: 34 / 51 °F
Wind: 6 mph from North

Location: Hefei Airport

Current Time: Feb 23, 2017 at 3:11:07 pm

Latest Report: Feb 23, 2017 at 2:00 pm


Visibility: 3 mi

Pressure: 30.36 "Hg

Humidity: 53%

Dew Point: 30 °F

Location of HefeiLocation

Past Weather in Hefei — Graph

°F

Hefei Temperature Yesterday

Maximum temperature yesterday: 36 °F (at 12:00 am)
Minimum temperature yesterday: 32 °F (at 3:00 am)
Average temperature yesterday: 34 °F

High & Low Weather Summary for the Past Weeks

 TemperatureHumidityPressure
High81 °F (Feb 19, 2:00 pm)100% (Feb 8, 11:00 pm)30.54 "Hg (Feb 8, 11:00 pm)
Low27 °F (Feb 11, 6:00 am)19% (Feb 14, 4:00 pm)29.65 "Hg (Feb 19, 4:00 pm)
Average45 °F67%30.28 "Hg
* Reported Feb 8 2:00 pm — Feb 23 2:00 pm, Hefei, Weather by CustomWeather, © 2017

Note: Actual official high and low records may vary slightly from our data, if they occured in-between our weather recording intervals... More about our weather records

Advertising

Hefei Weather History for the Previous 24 Hours

Scroll right to see more
 ConditionsComfort  
Time TempWeatherWind HumidityBarometerVisibility
2:00 pm
Thu, Feb 23
46 °FHaze.6 mph53%30.36 "Hg3 mi
1:00 pm45 °FHaze.6 mph61%30.39 "Hg2 mi
12:00 pm43 °FHaze.3 mph66%30.42 "Hg1 mi
11:00 am41 °FFog.3 mph76%30.45 "Hg1 mi
10:00 am37 °FFog.3 mph87%30.45 "Hg1 mi
9:00 am36 °FFog.3 mph93%30.42 "Hg1 mi
8:00 am34 °FFog.3 mph100%30.42 "Hg1 mi
7:00 am34 °FFog.6 mph100%30.39 "Hg1 mi
6:00 am32 °FIce fog.3 mph100%30.36 "Hg1 mi
5:00 am32 °FIce fog.6 mph100%30.33 "Hg1 mi
4:00 am34 °FFog.3 mph93%30.33 "Hg1 mi
3:00 am34 °FFog.6 mph93%30.36 "Hg1 mi
2:00 am34 °FFog.6 mph93%30.36 "Hg1 mi
1:00 am34 °FFog.6 mph93%30.33 "Hg1 mi
12:00 am34 °FFog.6 mph93%30.33 "Hg1 mi
11:00 pm
Wed, Feb 22
34 °FFog.6 mph93%30.30 "Hg1 mi
10:00 pm34 °FFog.6 mph93%30.30 "Hg1 mi
9:00 pm34 °FFog.6 mph93%30.27 "Hg1 mi
8:00 pm34 °FFog.6 mph93%30.27 "Hg2 mi
7:00 pm36 °FFog.6 mph87%30.24 "Hg2 mi
6:00 pm36 °FFog.10 mph87%30.24 "Hg2 mi
5:00 pm36 °FFog.8 mph87%30.21 "Hg2 mi
4:00 pm36 °FFog.13 mph87%30.21 "Hg2 mi
3:00 pm36 °FFog.10 mph81%30.21 "Hg2 mi
Weather by CustomWeather, © 2017

See weather overviewHow to use our weather pages